• In United Kingdom
  • List of Countries
  • For 7 days
  • Water Temperature
  • Satellite Maps
  • Weather Map
  • Weather Widgets
  • user-avatar
    Login

    Hourly Weather Graz

    Today, 17 January, Wednesday

    Time Temperature Precipitation Wind Pressure Humidity
    00:00 +3°C° 0.2 mm 1 mps 711 mmHg 91%
    01:00 +3°C° 0.2 mm 1 mps 711 mmHg 91%
    02:00 +2°C° 0.1 mm 1 mps 710 mmHg 91%
    03:00 +2°C° 0.1 mm 1 mps 710 mmHg 91%
    04:00 +2°C° 0.1 mm 1 mps 709 mmHg 92%
    05:00 +2°C° 0.1 mm 1 mps 708 mmHg 91%
    06:00 +2°C° 0.1 mm 1 mps 708 mmHg 91%
    07:00 +1°C° 0.1 mm 1 mps 708 mmHg 91%
    08:00 +2°C° 0.2 mm 1 mps 708 mmHg 90%
    09:00 +3°C° 0.2 mm 1 mps 708 mmHg 88%
    10:00 +2°C° 0.2 mm 2 mps 708 mmHg 87%
    11:00 +3°C° 0.2 mm 2 mps 709 mmHg 81%
    12:00 +2°C° 0.2 mm 3 mps 709 mmHg 74%
    13:00 +3°C° 0.2 mm 3 mps 709 mmHg 68%
    14:00 +2°C° 0.1 mm 3 mps 710 mmHg 68%
    15:00 +1°C° 0.1 mm 3 mps 711 mmHg 68%
    16:00 +1°C° 0.1 mm 3 mps 712 mmHg 67%
    17:00 0°C° 0.1 mm 3 mps 713 mmHg 70%
    18:00 -1°C° 0.1 mm 3 mps 713 mmHg 73%
    19:00 -2°C° 0.1 mm 3 mps 714 mmHg 75%
    20:00 -2°C° 0.1 mm 3 mps 715 mmHg 76%
    21:00 -2°C° 0.1 mm 3 mps 715 mmHg 77%
    22:00 -2°C° 0.1 mm 2 mps 716 mmHg 77%
    23:00 -2°C° 0.3 mm 3 mps 717 mmHg 77%

    Tomorrow, 18 January, Thursday

    Time Temperature Precipitation Wind Pressure Humidity
    00:00 -2°C° 0.3 mm 3 mps 717 mmHg 77%
    01:00 -2°C° 0.3 mm 3 mps 718 mmHg 77%
    02:00 -2°C° 0.2 mm 3 mps 718 mmHg 79%
    03:00 -2°C° 0.2 mm 3 mps 719 mmHg 80%
    04:00 -2°C° 0.2 mm 2 mps 719 mmHg 82%
    05:00 -2°C° 0.1 mm 2 mps 720 mmHg 81%
    06:00 -2°C° 0.1 mm 2 mps 720 mmHg 81%
    07:00 -2°C° 0.1 mm 2 mps 721 mmHg 81%
    08:00 -1°C° 0.1 mm 2 mps 721 mmHg 77%
    09:00 +2°C° 0.1 mm 1 mps 721 mmHg 74%
    10:00 +3°C° 0.1 mm 1 mps 721 mmHg 71%
    11:00 +3°C° 0.1 mm 2 mps 720 mmHg 69%
    12:00 +3°C° 0.1 mm 2 mps 719 mmHg 67%
    13:00 +4°C° 0.1 mm 2 mps 719 mmHg 66%
    14:00 +3°C° 0.1 mm 2 mps 718 mmHg 68%
    15:00 +3°C° 0.1 mm 2 mps 717 mmHg 71%
    16:00 +3°C° 0.1 mm 2 mps 717 mmHg 74%
    17:00 +2°C° 0 mm 2 mps 716 mmHg 76%
    18:00 +1°C° 0 mm 2 mps 716 mmHg 78%
    19:00 +1°C° 0 mm 2 mps 715 mmHg 80%
    20:00 +1°C° 0 mm 2 mps 715 mmHg 80%
    21:00 +1°C° 0 mm 2 mps 715 mmHg 80%
    22:00 +1°C° 0 mm 2 mps 714 mmHg 80%
    23:00 +1°C° 0 mm 2 mps 714 mmHg 81%

    Day after tomorrow, 19 January, Friday

    Time Temperature Precipitation Wind Pressure Humidity
    00:00 +1°C° 0 mm 2 mps 714 mmHg 81%
    01:00 +1°C° 0 mm 2 mps 713 mmHg 82%
    02:00 +1°C° 0 mm 2 mps 713 mmHg 83%
    03:00 0°C° 0 mm 3 mps 713 mmHg 84%
    04:00 0°C° 0 mm 3 mps 713 mmHg 86%
    05:00 +1°C° 0.3 mm 2 mps 714 mmHg 87%
    06:00 +1°C° 0.3 mm 2 mps 714 mmHg 89%
    07:00 +1°C° 0.3 mm 2 mps 715 mmHg 90%
    08:00 +3°C° 0.2 mm 1 mps 715 mmHg 88%
    09:00 +4°C° 0.2 mm 1 mps 716 mmHg 85%
    10:00 +4°C° 0.2 mm 1 mps 717 mmHg 82%
    11:00 +5°C° 0.1 mm 1 mps 717 mmHg 79%
    12:00 +5°C° 0.1 mm 1 mps 717 mmHg 77%
    13:00 +5°C° 0.1 mm 2 mps 717 mmHg 74%
    14:00 +5°C° 0.5 mm 1 mps 717 mmHg 77%
    15:00 +4°C° 0.5 mm 1 mps 717 mmHg 80%
    16:00 +4°C° 0.5 mm 1 mps 717 mmHg 82%
    17:00 +3°C° 0.3 mm 1 mps 718 mmHg 84%
    18:00 +2°C° 0.3 mm 1 mps 718 mmHg 85%
    19:00 +1°C° 0.3 mm 0 mps 719 mmHg 87%
    20:00 +1°C° 0.4 mm 0 mps 719 mmHg 89%
    21:00 +1°C° 0.4 mm 0 mps 719 mmHg 91%
    22:00 0°C° 0.4 mm 0 mps 720 mmHg 93%
    23:00 +1°C° 0.4 mm 1 mps 720 mmHg 93%

    20 January, Saturday

    Time Temperature Precipitation Wind Pressure Humidity
    00:00 +1°C° 0.4 mm 1 mps 719 mmHg 94%
    01:00 +1°C° 0.4 mm 1 mps 719 mmHg 95%
    02:00 +1°C° 0.2 mm 1 mps 719 mmHg 95%
    03:00 0°C° 0.2 mm 1 mps 719 mmHg 94%
    04:00 0°C° 0.2 mm 1 mps 718 mmHg 94%
    05:00 0°C° 0 mm 1 mps 718 mmHg 94%
    06:00 0°C° 0 mm 1 mps 718 mmHg 93%
    07:00 -1°C° 0 mm 1 mps 718 mmHg 92%
    08:00 0°C° 0.1 mm 1 mps 718 mmHg 90%
    09:00 +1°C° 0.1 mm 1 mps 718 mmHg 87%
    10:00 +1°C° 0.1 mm 1 mps 718 mmHg 85%
    11:00 +2°C° 0.1 mm 1 mps 718 mmHg 81%
    12:00 +3°C° 0.1 mm 1 mps 718 mmHg 78%
    13:00 +4°C° 0.1 mm 1 mps 718 mmHg 74%
    14:00 +3°C° 0 mm 1 mps 718 mmHg 76%
    15:00 +2°C° 0 mm 1 mps 718 mmHg 78%
    16:00 +1°C° 0 mm 0 mps 718 mmHg 80%
    17:00 +1°C° 0.1 mm 1 mps 718 mmHg 82%
    18:00 0°C° 0.1 mm 1 mps 718 mmHg 84%
    19:00 -2°C° 0.1 mm 1 mps 718 mmHg 86%
    20:00 -2°C° 0.1 mm 1 mps 719 mmHg 86%
    21:00 -3°C° 0.1 mm 1 mps 719 mmHg 86%
    22:00 -3°C° 0.1 mm 1 mps 719 mmHg 86%
    23:00 -3°C° 0 mm 1 mps 719 mmHg 85%

    21 January, Sunday

    Time Temperature Precipitation Wind Pressure Humidity
    00:00 -3°C° 0 mm 1 mps 719 mmHg 84%
    01:00 -3°C° 0 mm 1 mps 720 mmHg 83%
    02:00 -4°C° 0 mm 1 mps 720 mmHg 83%
    03:00 -4°C° 0 mm 1 mps 720 mmHg 83%
    04:00 -4°C° 0 mm 1 mps 720 mmHg 83%
    05:00 -4°C° 0 mm 1 mps 721 mmHg 83%
    06:00 -4°C° 0 mm 1 mps 722 mmHg 82%
    07:00 -4°C° 0 mm 1 mps 722 mmHg 82%
    08:00 -5°C° 0 mm 2 mps 723 mmHg 79%
    09:00 -4°C° 0 mm 2 mps 724 mmHg 76%
    10:00 -2°C° 0 mm 2 mps 724 mmHg 73%
    11:00 -1°C° 0 mm 2 mps 724 mmHg 70%
    12:00 +1°C° 0 mm 2 mps 724 mmHg 66%
    13:00 +2°C° 0 mm 2 mps 725 mmHg 63%
    14:00 +1°C° 0 mm 2 mps 725 mmHg 66%
    15:00 +1°C° 0 mm 1 mps 725 mmHg 70%
    16:00 +1°C° 0 mm 1 mps 725 mmHg 73%
    17:00 0°C° 0 mm 1 mps 726 mmHg 75%
    18:00 -2°C° 0 mm 1 mps 726 mmHg 78%
    19:00 -3°C° 0 mm 1 mps 726 mmHg 80%
    20:00 -3°C° 0 mm 1 mps 727 mmHg 80%
    21:00 -4°C° 0 mm 1 mps 727 mmHg 80%
    22:00 -4°C° 0 mm 1 mps 727 mmHg 80%
    23:00 -4°C° 0 mm 1 mps 727 mmHg 80%

    22 January, Monday

    Time Temperature Precipitation Wind Pressure Humidity
    00:00 -4°C° 0 mm 1 mps 726 mmHg 79%
    01:00 -4°C° 0 mm 1 mps 726 mmHg 79%
    02:00 -4°C° 0 mm 1 mps 725 mmHg 79%
    03:00 -3°C° 0 mm 1 mps 725 mmHg 79%
    04:00 -3°C° 0 mm 1 mps 724 mmHg 80%
    05:00 -2°C° 0.2 mm 1 mps 724 mmHg 81%
    06:00 -2°C° 0.2 mm 1 mps 724 mmHg 83%
    07:00 -2°C° 0.2 mm 1 mps 723 mmHg 85%
    08:00 -1°C° 0.2 mm 1 mps 723 mmHg 84%
    09:00 -1°C° 0.2 mm 1 mps 723 mmHg 84%
    10:00 0°C° 0.2 mm 1 mps 723 mmHg 83%
    11:00 0°C° 0.3 mm 1 mps 723 mmHg 82%
    12:00 +1°C° 0.3 mm 1 mps 723 mmHg 82%
    13:00 +2°C° 0.3 mm 1 mps 722 mmHg 81%
    14:00 +2°C° 0.4 mm 1 mps 723 mmHg 83%
    15:00 +2°C° 0.4 mm 1 mps 723 mmHg 86%
    16:00 +2°C° 0.4 mm 1 mps 723 mmHg 88%
    17:00 +1°C° 0.1 mm 1 mps 723 mmHg 90%
    18:00 +1°C° 0.1 mm 1 mps 723 mmHg 91%
    19:00 0°C° 0.1 mm 1 mps 724 mmHg 92%
    20:00 +1°C° 0.1 mm 1 mps 724 mmHg 92%
    21:00 +1°C° 0.1 mm 1 mps 725 mmHg 91%
    22:00 +2°C° 0.1 mm 1 mps 725 mmHg 91%
    23:00 +1°C° 0.1 mm 0 mps 725 mmHg 91%
    Show more